Powrót do katalogu

FENGYUN 1C DEB

AktywnyPO
NORAD 30103·DEBRIS·🇨🇳 China

Wystrzelony May 10, 1999 z Taiyuan Satellite Launch Center

Loading…

Następne Przeloty (najbliższe 24 godziny)

TLE

ŚwieżeSource: Space-Track

Epoka: Sep 14, 2026, 05:27 UTC

1 30103U 99025RG  26257.22774483  .00000558  00000-0  25203-3 0  9994
2 30103  99.2648 258.7569 0063936  53.6826   4.7214 14.25382195 18430

Śledź FENGYUN 1C DEB w czasie rzeczywistym z AllMySat

Download on the App Store